Regional Weather Roundup
Issued by NWS

Home | Current Version | Previous Version | Graphics & Text | Print | Product List | Glossary Off
Versions: 1 2 3 4 5 6 7 8 9 10 11 12 13 14 15 16 17 18 19 20 21 22 23 24 25 26 27 28 29 30 31 32 33 34 35 36 37 38 39 40 41 42 43 44 45 46 47 48 49 50

000
ASUS43 KTOP 271908
RWRKS

WEATHER ROUNDUP FOR KANSAS
NATIONAL WEATHER SERVICE GOODLAND KS
200 PM CDT WED MAY 27 2015

NOTE:  "FAIR" INDICATES FEW OR NO CLOUDS BELOW 12,000 FEET WITH NO
SIGNIFICANT WEATHER AND/OR OBSTRUCTIONS TO VISIBILITY.

KSZ001>006-013>018-027>032-041>047-272000-
NORTHWEST KANSAS

CITY           SKY/WX    TMP DP  RH WIND       PRES   REMARKS
GOODLAND       MOSUNNY   76  58  53 S20G26    30.05F
HAYS           CLOUDY    70  57  64 SE8       30.10F
HILL CITY      LGT RAIN  69  60  73 SE12      30.09F
RUSSELL        LGT RAIN  74  59  59 SE15      30.09R
$$

KSZ061>065-074>080-084>089-272000-
SOUTHWEST KANSAS

CITY           SKY/WX    TMP DP  RH WIND       PRES   REMARKS
DODGE CITY     MOSUNNY   77  63  61 SE14      30.08F
ELKHART          N/A     81  56  42 S8          N/A
GARDEN CITY    LGT RAIN  78  57  48 SE16G24   30.04F
GREAT BEND     PTSUNNY   75  61  60 SE13G20   30.09S
LIBERAL        SUNNY     82  54  36 S17       30.05F
PRATT          MOSUNNY   77  59  53 SE13      30.10F
$$

KSZ066>073-081>083-090>101-272000-
SOUTHEAST KANSAS

CITY           SKY/WX    TMP DP  RH WIND       PRES   REMARKS
CHANUTE        MOSUNNY   81  64  56 E7        30.09F
COFFEYVILLE    MOSUNNY   82  68  62 VRB6      30.08F
HUTCHINSON     PTSUNNY   79  63  57 SE10      30.10F
MEDICINE LODGE   N/A     80  62  54 E12       30.06F
NEWTON         PTSUNNY   75  61  60 S8        30.13F
PARSONS        MOSUNNY   82  66  58 VRB6      30.10F
WICHITA INTL   PTSUNNY   80  64  58 SE10      30.09F
WICHITA JABRA  PTSUNNY   79  64  60 SE7       30.10S
WICHITA MCCONL MOSUNNY   80  65  60 SE9       30.10S
WINFIELD       PTSUNNY   80  65  59 E7        30.09F
$$

KSZ007>012-019>026-033>040-048>060-102>105-272000-
NORTHEAST KANSAS

CITY           SKY/WX    TMP DP  RH WIND       PRES   REMARKS
CONCORDIA      MOSUNNY   79  51  37 S12       30.10S
EMPORIA        PTSUNNY   77  58  51 E9        30.10F
LAWRENCE       SUNNY     80  50  34 SE6       30.10F
MANHATTAN      MOSUNNY   80  54  40 E8        30.09S
MARYSVILLE     SUNNY     79  48  34 S6G16     30.09S
OLATHE IND     SUNNY     79  52  38 SE7       30.11F
OLATHE EXE     MOSUNNY   78  52  40 SE5       30.10F
SALINA         PTSUNNY   80  58  46 SE8       30.10S
TOPEKA BILLARD SUNNY     80  55  42 S7        30.09F
TOPEKA FORBES  SUNNY     81  53  37 SE8       30.10F
$$



USA.gov is the U.S. government's official web portal to all federal, state and local government web resources and services.